E1763 Weather Reports


time (UTC)temp
C
wind
direction
speed
KPH
gust
KPH
rain 1hr
cm
rain 24hr
cm
rain mn
cm
humidity
%
barometer
mb
20260504081530 8 32 0.0 0.0 0.00 0.00 0.00 93 1008.9
20260504050009 11 271 0.0 0.0 0.00 0.00 0.00 92 1009.6
20260504044512 11 271 0.0 0.0 0.00 0.00 0.00 92 1009.2
20260504043012 11 271 0.0 0.0 0.00 0.00 0.00 92 1009.4
20260504041506 11 22 0.0 0.0 0.00 0.00 0.00 91 1009.2
20260504040006 11 26 0.0 0.0 0.00 0.00 0.00 91 1009.2
20260504034504 11 15 0.0 0.0 0.00 0.00 0.00 91 1008.8
20260504033100 11 11 0.0 0.0 0.00 0.00 0.00 91 1008.6
20260504031601 11 355 0.0 0.0 0.00 0.00 0.00 90 1008.4
20260504030057 11 246 0.0 0.0 0.00 0.00 0.00 90 1008.3
20260504024558 11 246 0.0 0.0 0.00 0.00 0.00 90 1008.3
20260504023056 11 207 0.0 0.0 0.00 0.00 0.00 90 1008.1
20260504021556 11 198 0.0 0.0 0.00 0.00 0.00 89 1008.2
20260504020056 11 198 0.0 0.0 0.00 0.00 0.00 89 1008.2
20260504014603 11 198 0.0 0.0 0.00 0.00 0.00 88 1008.1
20260504013055 12 203 0.0 0.0 0.00 0.00 0.00 88 1008.0
20260504011558 12 218 0.0 0.0 0.00 0.00 0.00 88 1008.0
20260504010056 12 194 0.0 3.2 0.00 0.00 0.00 88 1007.9
20260504004550 12 221 0.0 0.0 0.00 0.00 0.00 87 1007.8
20260504003052 12 223 0.0 0.0 0.00 0.00 0.00 86 1007.9
20260504001548 12 222 0.0 0.0 0.00 0.00 0.00 85 1007.8
20260504000048 12 231 0.0 0.0 0.00 0.00 0.00 85 1007.6
20260503234549 12 210 0.0 0.0 0.00 0.00 0.00 85 1007.5
20260503233044 12 198 0.0 0.0 0.00 0.00 0.00 85 1007.3
20260503231544 13 205 0.0 0.0 0.00 0.00 0.00 85 1007.4
20260503230044 13 217 0.0 0.0 0.00 0.00 0.00 84 1007.2
20260503224542 13 206 0.0 0.0 0.00 0.00 0.00 84 1007.2
20260503223042 13 161 0.0 3.2 0.00 0.00 0.00 84 1007.2
20260503221541 13 223 0.0 4.8 0.00 0.00 0.00 84 1007.1
20260503220048 14 269 0.0 0.0 0.00 0.00 0.00 83 1007.2
20260503214540 14 227 0.0 0.0 0.00 0.00 0.00 83 1007.1
20260503213042 14 218 0.0 0.0 0.00 0.00 0.00 83 1007.2
20260503211539 14 176 0.0 3.2 0.00 0.00 0.00 84 1007.1
20260503210038 13 122 0.0 0.0 0.00 0.00 0.00 87 1007.0
20260503204534 13 198 0.0 0.0 0.00 0.00 0.00 86 1007.1
20260503203034 13 93 0.0 0.0 0.00 0.00 0.00 85 1007.3
20260503201534 13 269 0.0 0.0 0.00 0.00 0.00 86 1007.3
20260503200032 13 242 0.0 0.0 0.00 0.00 0.00 86 1007.4
20260503194531 13 195 0.0 1.6 0.00 0.00 0.00 86 1007.3
20260503193035 13 254 0.0 0.0 0.00 0.00 0.00 85 1007.4
20260503191530 13 167 0.0 0.0 0.00 0.00 0.00 86 1007.3
20260503190031 13 223 0.0 0.0 0.00 0.00 0.00 87 1007.3
20260503184526 12 255 0.0 1.6 0.00 0.00 0.00 88 1007.3
20260503183036 12 37 0.0 0.0 0.00 0.00 0.00 88 1007.4
20260503181523 12 206 0.0 0.0 0.00 0.00 0.00 89 1007.3
20260503180022 12 198 0.0 0.0 0.00 0.00 0.00 90 1007.3
20260503174519 12 170 0.0 0.0 0.00 0.00 0.00 91 1007.3
20260503173018 12 227 0.0 0.0 0.00 0.00 0.00 92 1007.2
20260503171516 11 208 0.0 6.4 0.00 0.00 0.00 93 1007.2